Time,TemperatureF,DewpointF,PressureIn,WindDirection,WindDirectionDegrees,WindSpeedMPH,WindSpeedGustMPH,Humidity,HourlyPrecipIn,Conditions,Clouds,dailyrainin,SolarRadiationWatts/m^2,SoftwareType,DateUTC
2014-01-02 00:21:00,63.0,4.0,30.18,East,83,1.0,2.0,9,-99.99,,,-99.99,0.000000,,2014-01-02 08:21:00,
2014-01-02 00:32:00,63.0,4.0,30.18,East,83,1.0,2.0,9,-99.99,,,-99.99,0.000000,,2014-01-02 08:32:00,
2014-01-02 01:40:00,63.0,3.0,30.17,NW,312,2.0,3.0,9,-99.99,,,-99.99,0.000000,,2014-01-02 09:40:00,
2014-01-02 02:23:00,63.0,3.0,30.17,NW,312,2.0,3.0,9,-99.99,,,-99.99,0.000000,,2014-01-02 10:23:00,
2014-01-02 02:33:00,63.0,3.0,30.17,NW,312,2.0,3.0,9,-99.99,,,-99.99,0.000000,,2014-01-02 10:33:00,
2014-01-02 02:40:00,63.0,3.0,30.17,NE,55,4.0,6.0,9,-99.99,,,-99.99,0.000000,,2014-01-02 10:40:00,
2014-01-02 03:22:00,63.0,3.0,30.17,NE,55,4.0,6.0,9,-99.99,,,-99.99,0.000000,,2014-01-02 11:22:00,
2014-01-02 03:33:00,63.0,3.0,30.17,NE,55,4.0,6.0,9,-99.99,,,-99.99,0.000000,,2014-01-02 11:33:00,
2014-01-02 03:40:00,63.0,3.0,30.16,SSE,162,4.0,5.0,9,-99.99,,,-99.99,0.000000,,2014-01-02 11:40:00,
2014-01-02 04:22:00,63.0,3.0,30.16,SSE,162,4.0,5.0,9,-99.99,,,-99.99,0.000000,,2014-01-02 12:22:00,
2014-01-02 04:32:00,63.0,3.0,30.16,SSE,162,4.0,5.0,9,-99.99,,,-99.99,0.000000,,2014-01-02 12:32:00,
2014-01-02 04:40:00,61.0,4.0,30.15,SE,138,3.0,4.0,10,-99.99,,,-99.99,0.000000,,2014-01-02 12:40:00,
2014-01-02 05:22:00,61.0,4.0,30.15,SE,138,3.0,4.0,10,-99.99,,,-99.99,0.000000,,2014-01-02 13:22:00,
2014-01-02 05:32:00,61.0,4.0,30.15,SE,138,3.0,4.0,10,-99.99,,,-99.99,0.000000,,2014-01-02 13:32:00,
2014-01-02 05:40:00,62.0,2.0,30.15,NW,310,3.0,4.0,9,-99.99,,,-99.99,0.000000,,2014-01-02 13:40:00,
2014-01-02 06:22:00,62.0,2.0,30.15,NW,310,3.0,4.0,9,-99.99,,,-99.99,0.000000,,2014-01-02 14:22:00,
2014-01-02 06:32:00,62.0,2.0,30.15,NW,310,3.0,4.0,9,-99.99,,,-99.99,0.000000,,2014-01-02 14:32:00,
2014-01-02 06:40:00,62.0,2.0,30.15,WSW,245,1.0,4.0,9,-99.99,,,-99.99,0.000000,,2014-01-02 14:40:00,
2014-01-02 07:22:00,62.0,2.0,30.15,WSW,245,1.0,4.0,9,-99.99,,,-99.99,0.000000,,2014-01-02 15:22:00,
2014-01-02 07:33:00,62.0,2.0,30.15,WSW,245,1.0,4.0,9,-99.99,,,-99.99,0.000000,,2014-01-02 15:33:00,
2014-01-02 07:40:00,62.0,7.0,30.15,NW,308,3.0,5.0,11,-99.99,,,-99.99,15.000000,,2014-01-02 15:40:00,
2014-01-02 08:24:00,62.0,7.0,30.15,NW,308,3.0,5.0,11,-99.99,,,-99.99,15.000000,,2014-01-02 16:24:00,
2014-01-02 08:33:00,62.0,7.0,30.15,NW,308,3.0,5.0,11,-99.99,,,-99.99,15.000000,,2014-01-02 16:33:00,
2014-01-02 08:40:00,65.0,10.0,30.16,SSW,204,3.0,4.0,11,-99.99,,,-99.99,228.000000,,2014-01-02 16:40:00,
2014-01-02 09:22:00,65.0,10.0,30.16,SSW,204,3.0,4.0,11,-99.99,,,-99.99,228.000000,,2014-01-02 17:22:00,
2014-01-02 09:33:00,65.0,10.0,30.16,SSW,204,3.0,4.0,11,-99.99,,,-99.99,228.000000,,2014-01-02 17:33:00,
2014-01-02 09:40:00,65.0,12.0,30.18,SSW,204,4.0,5.0,12,-99.99,,,-99.99,351.000000,,2014-01-02 17:40:00,
2014-01-02 10:22:00,65.0,12.0,30.18,SSW,204,4.0,5.0,12,-99.99,,,-99.99,351.000000,,2014-01-02 18:22:00,
2014-01-02 10:32:00,65.0,12.0,30.18,SSW,204,4.0,5.0,12,-99.99,,,-99.99,351.000000,,2014-01-02 18:32:00,
2014-01-02 10:40:00,64.0,11.0,30.19,West,269,3.0,4.0,12,-99.99,,,-99.99,484.000000,,2014-01-02 18:40:00,
2014-01-02 11:22:00,64.0,11.0,30.19,West,269,3.0,4.0,12,-99.99,,,-99.99,484.000000,,2014-01-02 19:22:00,
2014-01-02 11:33:00,64.0,11.0,30.19,West,269,3.0,4.0,12,-99.99,,,-99.99,484.000000,,2014-01-02 19:33:00,
2014-01-02 11:40:00,64.0,9.0,30.17,West,268,4.0,6.0,11,-99.99,,,-99.99,581.000000,,2014-01-02 19:40:00,
2014-01-02 13:22:00,65.0,11.0,30.14,West,267,4.0,6.0,12,-99.99,,,-99.99,581.000000,,2014-01-02 21:22:00,
2014-01-02 13:33:00,65.0,11.0,30.14,West,267,4.0,6.0,12,-99.99,,,-99.99,581.000000,,2014-01-02 21:33:00,
2014-01-02 15:22:00,65.0,12.0,30.10,West,275,4.0,6.0,12,-99.99,,,-99.99,397.000000,,2014-01-02 23:22:00,
2014-01-02 15:33:00,65.0,12.0,30.10,West,275,4.0,6.0,12,-99.99,,,-99.99,397.000000,,2014-01-02 23:33:00,
2014-01-02 15:40:00,68.0,15.0,30.10,SSE,158,1.0,3.0,13,-99.99,,,-99.99,216.000000,,2014-01-02 23:40:00,
2014-01-02 16:21:00,68.0,15.0,30.10,SSE,158,1.0,3.0,13,-99.99,,,-99.99,216.000000,,2014-01-03 00:21:00,
2014-01-02 16:32:00,68.0,15.0,30.10,SSE,158,1.0,3.0,13,-99.99,,,-99.99,216.000000,,2014-01-03 00:32:00,
2014-01-02 16:40:00,65.0,16.0,30.10,East,101,1.0,1.0,15,-99.99,,,-99.99,72.000000,,2014-01-03 00:40:00,
2014-01-02 17:21:00,65.0,16.0,30.10,East,101,1.0,1.0,15,-99.99,,,-99.99,72.000000,,2014-01-03 01:21:00,
2014-01-02 17:32:00,65.0,16.0,30.10,East,101,1.0,1.0,15,-99.99,,,-99.99,72.000000,,2014-01-03 01:32:00,
2014-01-02 17:40:00,63.0,21.0,30.09,ENE,75,4.0,6.0,20,-99.99,,,-99.99,0.000000,,2014-01-03 01:40:00,
2014-01-02 18:22:00,63.0,21.0,30.09,ENE,75,4.0,6.0,20,-99.99,,,-99.99,0.000000,,2014-01-03 02:22:00,
2014-01-02 18:32:00,63.0,21.0,30.09,ENE,75,4.0,6.0,20,-99.99,,,-99.99,0.000000,,2014-01-03 02:32:00,
2014-01-02 19:22:00,66.0,17.0,30.09,East,100,2.0,4.0,15,-99.99,,,-99.99,0.000000,,2014-01-03 03:22:00,
2014-01-02 19:33:00,66.0,17.0,30.09,East,100,2.0,4.0,15,-99.99,,,-99.99,0.000000,,2014-01-03 03:33:00,
2014-01-02 21:22:00,62.0,18.0,30.10,ESE,106,4.0,4.0,18,-99.99,,,-99.99,0.000000,,2014-01-03 05:22:00,
2014-01-02 21:33:00,62.0,18.0,30.10,ESE,106,4.0,4.0,18,-99.99,,,-99.99,0.000000,,2014-01-03 05:33:00,
2014-01-02 21:40:00,62.0,17.0,30.11,SE,129,3.0,4.0,17,-99.99,,,-99.99,0.000000,,2014-01-03 05:40:00,
2014-01-02 22:22:00,62.0,17.0,30.11,SE,129,3.0,4.0,17,-99.99,,,-99.99,0.000000,,2014-01-03 06:22:00,
2014-01-02 22:32:00,62.0,17.0,30.11,SE,129,3.0,4.0,17,-99.99,,,-99.99,0.000000,,2014-01-03 06:32:00,
2014-01-02 22:40:00,63.0,19.0,30.11,East,85,4.0,7.0,18,-99.99,,,-99.99,0.000000,,2014-01-03 06:40:00,
2014-01-02 23:22:00,63.0,19.0,30.11,East,85,4.0,7.0,18,-99.99,,,-99.99,0.000000,,2014-01-03 07:22:00,
2014-01-02 23:32:00,63.0,19.0,30.11,East,85,4.0,7.0,18,-99.99,,,-99.99,0.000000,,2014-01-03 07:32:00,
2014-01-02 23:40:00,62.0,14.0,30.11,West,281,1.0,4.0,15,-99.99,,,-99.99,0.000000,,2014-01-03 07:40:00,